Starlink 30344

operational
NORAD ID: 57737 Int'l Des: 2023-131 Owner: SPXS Country: US Constellation: starlink
LEOCIRCULAR

关于 Starlink 30344

正在加载描述...

实时位置

正在加载3D地球...

即将过境

高度历史

Altitude vs Time

uPlot chart will show altitude changes over time

两行轨道根数

1 57737U 23131F 25303.98270268 .00001928 00000-0 15771-3 0 9998
2 57737 43.0038 156.5211 0001283 271.0026 89.0670 15.02545429120417
Epoch: Oct 30, 2025 • Age: 15 hours

当前状态

高度 569.1 km
速度 7.58 km/s
星下点 -36.94°S, 120.96°E
发射日期 Sep 1, 2023
运行时间 2.1 years
类型 internet

技术详情

分类 Payload
质量 730.00 kg
干质量 700.00 kg
总质量 730.00 kg
长度 0.30 m
直径 4.10 m
跨度 29.00 m
形状 Box + pan
制造商 SPXS
平台类型 Starlink V2M
阶段状态 In Orbit
所有者/国家 SPXS/US

大型星座

Loading constellations...